weather.gov     
National Weather Service

Regional Weather Roundup
NWS Homepage
This page is being discontinued on March 12, 2014.
The same data is available at this site. Please update your bookmarks.
Thank you, and we apologize for the inconvenience.
Please send an email to SR-SRH.Webmaster@noaa.gov with any concerns.


Current Version
Previous Version:    01  02  03  04  05  06  07  08  09  10  11  12  13  14  15  16  17  18  19  20  21  22  23  24  25  26  27  28  29  30  
[Printable]
684
ASPQ40 PGUM 200112
RWRPQ
WEATHER ROUNDUP FOR THE MARIANAS AND MICRONESIA
NATIONAL WEATHER SERVICE TIYAN GU
1100 AM CHST SAT SEP 20 2014

GUZ001>004-200200-
MARIANA ISLANDS-

CITY           SKY/WX    TMP DP  RH WIND       PRES   REMARKS
GUAM AIRPORT   MOSUNNY   88  75  66 E13       29.86F HX  97
ANDERSEN AFB   MOSUNNY   84  77  79 E10       29.86F HX  94
ROTA AIRPORT   MOSUNNY   81  79  94 E10       29.87F
TINIAN AP      PTSUNNY   88  79  74 NE12      29.84F HX 102
SAIPAN AP      MOSUNNY   84  79  84 E10       29.86S HX  96

$$

PMZ161-200200-
REPUBLIC OF PALAU-

CITY           SKY/WX    TMP DP  RH WIND       PRES   REMARKS
KOROR AP       CLOUDY    82  77  83 CALM      29.90S HX  91
KOROR WSO      CLOUDY    84  75  74 N8        29.89  HX  92

$$

PMZ171>174-200200-
FEDERATED STATES OF MICRONESIA-

CITY           SKY/WX    TMP DP  RH WIND       PRES   REMARKS
YAP AIRPORT    CLOUDY    77  75  94 N16       29.86F
CHUUK AP       CLOUDY    90  82  79 S8        29.81  HX 111
POHNPEI AP     PTSUNNY   82  77  83 S5        29.80F HX  91
POHNPEI WSO    LGT RAIN  79  77  94 SE3       29.84F
KOSRAE AP      LGT RAIN  81  75  83 S13       29.79F

$$

PMZ181-200200-
REPUBLIC OF THE MARSHALL ISLANDS-

CITY           SKY/WX    TMP DP  RH WIND       PRES   REMARKS
KWAJALEIN AP   PTSUNNY   88  73  62 NE10      29.78F HX  96
MAJURO AP      NOT AVBL
MAJURO WSO     PTSUNNY   88  79  74 CALM      29.76F HX 102

$$





U.S. Dept. of Commerce
NOAA National Weather Service
1325 East West Highway
Silver Spring, MD 20910
E-mail: w-nws.webmaster@noaa.gov
Page last modified: May 16, 2007
NATIONAL WEATHER SERVICE: for Safety, for Work, for Fun - FOR LIFE